When you browse on this site, cookies collect data to enhance your experience and personalize the content and advertising you see.
Visit our Privacy Policy to learn more. By continuing to use the site, you agree to this use of cookies and data.
  • In Czech Republic
  • List of Countries
  • For 7 days
  • Water Temperature
  • Satellite Maps
  • Weather Map
  • Weather Widgets
  • user-avatar
    Login

    Hourly Weather Changzhou

    Today, 20 June, Thursday

    Time Temperature Precipitation Wind Pressure Humidity
    00:00 +26°C° 0 mm 3 mps 754 mmHg 87%
    01:00 +25°C° 0 mm 3 mps 753 mmHg 87%
    02:00 +25°C° 0 mm 3 mps 753 mmHg 88%
    03:00 +25°C° 0 mm 3 mps 753 mmHg 88%
    04:00 +25°C° 0 mm 3 mps 754 mmHg 89%
    05:00 +24°C° 0 mm 3 mps 754 mmHg 89%
    06:00 +25°C° 0 mm 3 mps 754 mmHg 87%
    07:00 +25°C° 0 mm 3 mps 754 mmHg 85%
    08:00 +25°C° 0 mm 3 mps 754 mmHg 87%
    09:00 +25°C° 0.1 mm 3 mps 754 mmHg 86%
    10:00 +25°C° 0.1 mm 4 mps 754 mmHg 84%
    11:00 +26°C° 0.1 mm 4 mps 754 mmHg 82%
    12:00 +26°C° 0 mm 3 mps 754 mmHg 80%
    13:00 +26°C° 0 mm 3 mps 753 mmHg 79%
    14:00 +27°C° 0 mm 3 mps 753 mmHg 77%
    15:00 +27°C° 0.1 mm 3 mps 753 mmHg 76%
    16:00 +27°C° 0.1 mm 4 mps 753 mmHg 76%
    17:00 +27°C° 0.1 mm 4 mps 752 mmHg 76%
    18:00 +26°C° 0.1 mm 4 mps 752 mmHg 78%
    19:00 +26°C° 0.1 mm 4 mps 753 mmHg 81%
    20:00 +25°C° 0.1 mm 4 mps 753 mmHg 83%
    21:00 +25°C° 0.1 mm 4 mps 753 mmHg 83%
    22:00 +25°C° 0.1 mm 4 mps 753 mmHg 84%
    23:00 +25°C° 0.1 mm 4 mps 753 mmHg 84%

    Tomorrow, 21 June, Friday

    Time Temperature Precipitation Wind Pressure Humidity
    00:00 +25°C° 0.1 mm 4 mps 752 mmHg 84%
    01:00 +25°C° 0.1 mm 4 mps 752 mmHg 84%
    02:00 +25°C° 0.1 mm 4 mps 752 mmHg 84%
    03:00 +23°C° 0.6 mm 4 mps 752 mmHg 84%
    04:00 +23°C° 0.6 mm 4 mps 752 mmHg 85%
    05:00 +23°C° 0.6 mm 4 mps 752 mmHg 86%
    06:00 +23°C° 1.1 mm 4 mps 752 mmHg 87%
    07:00 +23°C° 1.1 mm 4 mps 752 mmHg 88%
    08:00 +23°C° 1.1 mm 4 mps 753 mmHg 89%
    09:00 +23°C° 0.4 mm 4 mps 753 mmHg 86%
    10:00 +23°C° 0.4 mm 4 mps 753 mmHg 83%
    11:00 +24°C° 0.4 mm 3 mps 753 mmHg 81%
    12:00 +25°C° 0.1 mm 3 mps 753 mmHg 76%
    13:00 +25°C° 0.1 mm 3 mps 753 mmHg 71%
    14:00 +26°C° 0.1 mm 3 mps 753 mmHg 67%
    15:00 +27°C° 0 mm 3 mps 753 mmHg 64%
    16:00 +27°C° 0 mm 3 mps 753 mmHg 62%
    17:00 +28°C° 0 mm 3 mps 753 mmHg 59%
    18:00 +27°C° 0 mm 3 mps 753 mmHg 63%
    19:00 +26°C° 0 mm 3 mps 753 mmHg 67%
    20:00 +25°C° 0 mm 3 mps 753 mmHg 71%
    21:00 +25°C° 0 mm 2 mps 754 mmHg 73%
    22:00 +24°C° 0 mm 2 mps 754 mmHg 74%
    23:00 +24°C° 0 mm 2 mps 754 mmHg 76%

    Day after tomorrow, 22 June, Saturday

    Time Temperature Precipitation Wind Pressure Humidity
    00:00 +24°C° 0 mm 1 mps 754 mmHg 77%
    01:00 +23°C° 0 mm 1 mps 754 mmHg 78%
    02:00 +23°C° 0 mm 1 mps 753 mmHg 78%
    03:00 +23°C° 0 mm 1 mps 753 mmHg 80%
    04:00 +23°C° 0 mm 1 mps 753 mmHg 81%
    05:00 +21°C° 0 mm 2 mps 753 mmHg 83%
    06:00 +24°C° 0 mm 2 mps 753 mmHg 79%
    07:00 +25°C° 0 mm 2 mps 754 mmHg 74%
    08:00 +26°C° 0 mm 3 mps 754 mmHg 70%
    09:00 +27°C° 0 mm 3 mps 754 mmHg 65%
    10:00 +29°C° 0 mm 3 mps 754 mmHg 59%
    11:00 +30°C° 0 mm 3 mps 754 mmHg 54%
    12:00 +32°C° 0 mm 4 mps 754 mmHg 50%
    13:00 +32°C° 0 mm 4 mps 753 mmHg 46%
    14:00 +33°C° 0 mm 5 mps 753 mmHg 42%
    15:00 +32°C° 0 mm 5 mps 753 mmHg 44%
    16:00 +30°C° 0 mm 5 mps 753 mmHg 46%
    17:00 +29°C° 0 mm 5 mps 753 mmHg 48%
    18:00 +28°C° 0 mm 4 mps 753 mmHg 53%
    19:00 +27°C° 0 mm 4 mps 753 mmHg 58%
    20:00 +25°C° 0 mm 4 mps 754 mmHg 63%
    21:00 +25°C° 0 mm 3 mps 754 mmHg 64%
    22:00 +24°C° 0 mm 2 mps 754 mmHg 66%
    23:00 +24°C° 0 mm 2 mps 754 mmHg 67%

    23 June, Sunday

    Time Temperature Precipitation Wind Pressure Humidity
    00:00 +23°C° 0 mm 1 mps 754 mmHg 69%
    01:00 +23°C° 0 mm 1 mps 754 mmHg 70%
    02:00 +22°C° 0 mm 1 mps 753 mmHg 72%
    03:00 +22°C° 0 mm 1 mps 754 mmHg 73%
    04:00 +22°C° 0 mm 1 mps 754 mmHg 74%
    05:00 +21°C° 0 mm 1 mps 754 mmHg 75%
    06:00 +23°C° 0 mm 1 mps 754 mmHg 69%
    07:00 +24°C° 0 mm 2 mps 755 mmHg 64%
    08:00 +25°C° 0 mm 2 mps 755 mmHg 58%
    09:00 +27°C° 0 mm 2 mps 755 mmHg 52%
    10:00 +28°C° 0 mm 2 mps 755 mmHg 46%
    11:00 +30°C° 0 mm 3 mps 755 mmHg 40%
    12:00 +31°C° 0 mm 3 mps 754 mmHg 38%
    13:00 +33°C° 0 mm 3 mps 754 mmHg 36%
    14:00 +34°C° 0 mm 3 mps 754 mmHg 34%
    15:00 +33°C° 0 mm 3 mps 754 mmHg 35%
    16:00 +33°C° 0 mm 3 mps 754 mmHg 36%
    17:00 +33°C° 0 mm 3 mps 753 mmHg 37%
    18:00 +30°C° 0 mm 3 mps 754 mmHg 41%
    19:00 +29°C° 0 mm 3 mps 754 mmHg 45%
    20:00 +27°C° 0 mm 3 mps 755 mmHg 49%
    21:00 +26°C° 0 mm 3 mps 755 mmHg 54%
    22:00 +26°C° 0 mm 3 mps 755 mmHg 60%
    23:00 +25°C° 0 mm 3 mps 755 mmHg 65%

    24 June, Monday

    Time Temperature Precipitation Wind Pressure Humidity
    00:00 +24°C° 0 mm 3 mps 755 mmHg 69%
    01:00 +24°C° 0 mm 3 mps 755 mmHg 73%
    02:00 +24°C° 0 mm 2 mps 755 mmHg 77%
    03:00 +23°C° 0 mm 2 mps 755 mmHg 77%
    04:00 +23°C° 0 mm 2 mps 755 mmHg 78%
    05:00 +23°C° 0 mm 2 mps 755 mmHg 79%
    06:00 +24°C° 0 mm 3 mps 756 mmHg 74%
    07:00 +25°C° 0 mm 3 mps 756 mmHg 70%
    08:00 +26°C° 0 mm 4 mps 757 mmHg 66%
    09:00 +27°C° 0 mm 4 mps 757 mmHg 60%
    10:00 +29°C° 0 mm 4 mps 757 mmHg 54%
    11:00 +30°C° 0 mm 4 mps 757 mmHg 48%
    12:00 +32°C° 0 mm 4 mps 756 mmHg 46%
    13:00 +32°C° 0 mm 4 mps 756 mmHg 44%
    14:00 +33°C° 0 mm 4 mps 756 mmHg 43%
    15:00 +32°C° 0 mm 4 mps 756 mmHg 47%
    16:00 +30°C° 0 mm 4 mps 755 mmHg 51%
    17:00 +30°C° 0 mm 5 mps 755 mmHg 56%
    18:00 +29°C° 0 mm 5 mps 756 mmHg 58%
    19:00 +27°C° 0 mm 5 mps 756 mmHg 60%
    20:00 +26°C° 0 mm 4 mps 756 mmHg 62%
    21:00 +26°C° 0 mm 5 mps 756 mmHg 64%
    22:00 +25°C° 0 mm 5 mps 757 mmHg 67%
    23:00 +25°C° 0 mm 5 mps 757 mmHg 70%

    25 June, Tuesday

    Time Temperature Precipitation Wind Pressure Humidity
    00:00 +23°C° 0 mm 5 mps 756 mmHg 72%
    01:00 +23°C° 0 mm 5 mps 756 mmHg 74%
    02:00 +23°C° 0 mm 4 mps 756 mmHg 76%
    03:00 +22°C° 0 mm 5 mps 756 mmHg 77%
    04:00 +22°C° 0 mm 5 mps 756 mmHg 78%
    05:00 +22°C° 0 mm 5 mps 756 mmHg 79%
    06:00 +23°C° 0 mm 5 mps 756 mmHg 76%
    07:00 +25°C° 0 mm 5 mps 756 mmHg 73%
    08:00 +26°C° 0 mm 6 mps 756 mmHg 70%
    09:00 +27°C° 0 mm 6 mps 756 mmHg 65%
    10:00 +29°C° 0 mm 6 mps 756 mmHg 60%
    11:00 +30°C° 0 mm 6 mps 755 mmHg 55%
    12:00 +32°C° 0 mm 6 mps 755 mmHg 53%
    13:00 +32°C° 0 mm 6 mps 755 mmHg 52%
    14:00 +33°C° 0 mm 6 mps 754 mmHg 50%
    15:00 +33°C° 0 mm 6 mps 754 mmHg 52%
    16:00 +32°C° 0 mm 6 mps 754 mmHg 54%
    17:00 +32°C° 0 mm 6 mps 753 mmHg 57%
    18:00 +30°C° 0 mm 6 mps 754 mmHg 62%
    19:00 +29°C° 0 mm 6 mps 754 mmHg 67%
    20:00 +28°C° 0 mm 6 mps 754 mmHg 72%
    21:00 +27°C° 0 mm 6 mps 754 mmHg 73%
    22:00 +27°C° 0 mm 6 mps 755 mmHg 74%
    23:00 +27°C° 0 mm 6 mps 755 mmHg 75%
    Show more